SL-16 DEB, 22571

Orbit data source: Space-Track

SL-16 DEB, 22571 is space debris in LEO originally from a launch on Fri, 25 Dec 1992 UTC launched from the Tyuratam Missile And Space Complex (TTMTR). Debris objects in space refer to the collection of defunct objects orbiting the Earth. Examples of debris include non-operational satellites, rocket bodies, and fragments generated from explosions, collisions, or faulty payload assembly.

Loading next visibility...
Identifier
22571, 1992-093HT
Orbit
LEO
Country
Flag of CISCIS
Related business
Manufacturer
Unknown
Mission
Spacecraft
Bus & Motor
Unknown
Mass
Unknown
Launch date (UTC)
1992-12-25 (33 years ago)
Launch vehicle
Unknown
Launch site
Tyuratam Missile And Space Complex (TTMTR)
Object type
Payload
Rocket body
Debris
Shape & HBR
Unknown shape, 0.1 m
Radar Cross Section
Small (<0.1 m²)

Expand to show TLE details & history
Last TLE update: 5 days ago

TLE from 5 days ago
0 SL-16 DEB
1 22571U 92093HT  25348.47001397  .00037962  00000-0  47991-2 0  9992
2 22571  71.3351  19.6660 0045438 172.0425 188.1467 14.80933382677828
Epoch: 2025-12-14T11:16Z
TLE epoch observation values (Epoch: 2025-12-14T11:16:49.207Z)
Latitude
0.00007°
Longitude
127.07852°
Altitude
660.39 km
Speed
7.51 km/s
True Right ascension
01h 18m 39s
True Declination
0° 00' 00"
Sunlit
Object was in partial shadow at epoch
Visualization orbit readout
Latitude
Unknown
Longitude
Unknown
Altitude
Unknown
Speed
Unknown
Apparent Right ascension
Unknown
Apparent Declination
Unknown
Sunlit
N/A
Visualization observer readout
Local Sidereal Time
05:50:06
Azimuth
Unknown
Elevation
Unknown
Doppler factor
Unknown
Orbital elements
Apogee altitude
656.024 km
Perigee altitude
592.389 km
Semi-major axis
7,002.343 km
Eccentricity
0.00454
Inclination
71.3351°
RAAN
19.666°
Arg. of periapsis
172.0425°
True anomaly
188.07333°
Mean anomaly
188.1467°
Eccentric anomaly
188.10997°
Mean motion
3.70406 °/min
Orbital period
97.19 mins
BSTAR
0.0047991
Loading maneuver chart data...
Computing Atmospheric mass density...
Loading historical data...
Loading historical data...
Loading historical data...
Loading historical data...
Loading historical data...
Loading historical data...
Loading historical data...

Documentation

Showing up to 5 results
|